KB9GXK Weather Reports


Display with metric or nautical units.
time (UTC)temp
F
wind
direction
speed
MPH
gust
MPH
rain 1hr
in
rain 24hr
in
rain mn
in
humidity
%
barometer
mb
20260504004510 65 222 1.0 1.0 0.00 0.00 0.00 49 1005.4
20260504004007 65 209 1.0 1.0 0.00 0.00 0.00 48 1005.2
20260504003503 66 145 3.0 3.0 0.00 0.00 0.00 47 1005.5
20260504003000 66 229 4.0 5.0 0.00 0.00 0.00 47 1005.3
20260504002456 66 239 3.0 3.0 0.00 0.00 0.00 47 1005.4
20260504001954 66 264 1.0 2.0 0.00 0.00 0.00 47 1005.2
20260504001451 67 202 1.0 1.0 0.00 0.00 0.00 46 1005.3
20260504000948 67 224 1.0 1.0 0.00 0.00 0.00 45 1005.5
20260504000445 67 225 3.0 6.0 0.00 0.00 0.00 45 1005.4
20260503235942 67 307 3.0 5.0 0.00 0.00 0.00 45 1005.4
20260503235440 68 227 4.0 6.0 0.00 0.00 0.00 44 1005.3
20260503234937 68 227 2.0 2.0 0.00 0.00 0.00 44 1005.5
20260503234435 68 315 4.0 6.0 0.00 0.00 0.00 43 1005.3
20260503233933 68 208 5.0 8.0 0.00 0.00 0.00 42 1005.4
20260503233429 68 231 3.0 3.0 0.00 0.00 0.00 43 1005.2
20260503232925 68 265 8.0 10.0 0.00 0.00 0.00 42 1005.4
20260503232422 68 342 3.0 3.0 0.00 0.00 0.00 42 1005.6
20260503231920 68 255 3.0 3.0 0.00 0.00 0.00 42 1005.4
20260503231417 69 230 3.0 5.0 0.00 0.00 0.00 42 1005.4
20260503230913 69 222 4.0 6.0 0.00 0.00 0.00 42 1005.4
20260503230410 69 217 7.0 9.0 0.00 0.00 0.00 42 1005.4
20260503225908 69 189 4.0 7.0 0.00 0.00 0.00 42 1005.4
20260503225404 69 192 6.0 7.0 0.00 0.00 0.00 42 1005.8
20260503224900 69 229 6.0 7.0 0.00 0.00 0.00 42 1005.7
20260503224357 69 245 8.0 13.0 0.00 0.00 0.00 41 1005.7
20260503223855 69 182 6.0 8.0 0.00 0.00 0.00 42 1005.6
20260503223353 68 245 10.0 14.0 0.00 0.00 0.00 41 1005.8
20260503222848 68 219 5.0 7.0 0.00 0.00 0.00 41 1005.7
20260503222347 69 270 6.0 11.0 0.00 0.00 0.00 41 1006.0
20260503221844 69 201 7.0 13.0 0.00 0.00 0.00 41 1006.0
20260503221343 69 195 5.0 6.0 0.00 0.00 0.00 41 1005.9
20260503220838 69 242 11.0 13.0 0.00 0.00 0.00 41 1005.8
20260503220335 69 233 7.0 8.0 0.00 0.00 0.00 41 1006.3
20260503215832 68 251 7.0 11.0 0.00 0.00 0.00 42 1006.1
20260503215329 68 150 10.0 11.0 0.00 0.00 0.00 41 1006.1
20260503214827 68 227 11.0 14.0 0.00 0.00 0.00 41 1006.1
20260503214324 68 237 7.0 11.0 0.00 0.00 0.00 41 1006.4
20260503213822 68 232 14.0 16.0 0.00 0.00 0.00 41 1006.5
20260503213319 67 280 9.0 11.0 0.00 0.00 0.00 41 1006.5
20260503212816 69 227 14.0 18.0 0.00 0.00 0.00 40 1006.7
20260503212314 68 202 4.0 5.0 0.00 0.00 0.00 40 1006.4
20260503211811 69 202 9.0 13.0 0.00 0.00 0.00 39 1006.9
20260503211308 69 261 6.0 9.0 0.00 0.00 0.00 40 1006.8
20260503210807 68 233 6.0 7.0 0.00 0.00 0.00 40 1006.8
20260503210306 68 237 10.0 14.0 0.00 0.00 0.00 40 1006.7
20260503205800 68 148 9.0 11.0 0.00 0.00 0.00 41 1007.2
20260503205257 68 255 10.0 17.0 0.00 0.00 0.00 42 1007.0
20260503204753 67 231 8.0 11.0 0.00 0.00 0.00 43 1006.9
20260503204251 67 231 7.0 13.0 0.00 0.00 0.00 45 1007.2
20260503203748 67 282 11.0 14.0 0.00 0.00 0.00 45 1007.2
20260503203246 67 146 8.0 11.0 0.00 0.00 0.00 46 1007.7
20260503202743 66 137 8.0 14.0 0.00 0.00 0.00 46 1007.4
20260503202241 66 226 7.0 11.0 0.00 0.00 0.00 47 1007.7
20260503201738 65 217 14.0 22.0 0.00 0.00 0.00 46 1007.9
20260503201235 66 202 7.0 8.0 0.00 0.00 0.00 46 1008.0
20260503200732 65 237 9.0 10.0 0.00 0.00 0.00 46 1008.3
20260503200228 65 217 9.0 13.0 0.00 0.00 0.00 47 1008.2
20260503195725 65 194 7.0 9.0 0.00 0.00 0.00 46 1008.4
20260503195222 66 155 10.0 18.0 0.00 0.00 0.00 44 1008.4
20260503194720 65 235 8.0 11.0 0.00 0.00 0.00 45 1008.4
20260503194215 64 179 8.0 10.0 0.00 0.00 0.00 44 1008.4
20260503193711 64 210 10.0 13.0 0.00 0.00 0.00 44 1008.7
20260503193208 64 265 5.0 8.0 0.00 0.00 0.00 44 1008.6
20260503192703 64 201 6.0 7.0 0.00 0.00 0.00 45 1008.7
20260503192159 62 198 9.0 11.0 0.00 0.00 0.00 45 1008.7
20260503191655 63 243 9.0 13.0 0.00 0.00 0.00 46 1008.8
20260503191153 63 196 7.0 8.0 0.00 0.00 0.00 46 1008.9
20260503190649 63 207 6.0 7.0 0.00 0.00 0.00 45 1008.7
20260503190146 61 192 5.0 7.0 0.00 0.00 0.00 47 1008.7
20260503185643 61 181 8.0 9.0 0.00 0.00 0.00 48 1008.8
20260503185138 61 197 6.0 7.0 0.00 0.00 0.00 48 1008.9
20260503184634 61 192 6.0 11.0 0.00 0.00 0.00 47 1008.8
20260503184130 61 169 14.0 16.0 0.00 0.00 0.00 47 1009.1
20260503183627 61 169 7.0 11.0 0.00 0.00 0.00 48 1009.0
20260503183124 62 199 10.0 16.0 0.00 0.00 0.00 47 1009.1
20260503182622 61 293 9.0 10.0 0.00 0.00 0.00 48 1009.2
20260503182120 60 173 15.0 23.0 0.00 0.00 0.00 48 1009.3
20260503181617 61 163 15.0 18.0 0.00 0.00 0.00 50 1009.4
20260503181114 61 204 8.0 10.0 0.00 0.00 0.00 49 1009.6
20260503180611 61 159 14.0 16.0 0.00 0.00 0.00 50 1009.6
20260503180109 61 238 6.0 8.0 0.00 0.00 0.00 51 1010.0
20260503175605 61 188 10.0 17.0 0.00 0.00 0.00 54 1010.0
20260503175102 59 184 12.0 14.0 0.00 0.00 0.00 55 1010.1
20260503174559 58 207 7.0 9.0 0.00 0.00 0.00 57 1010.2
20260503174056 58 242 6.0 10.0 0.00 0.00 0.00 57 1010.3
20260503173551 57 198 14.0 17.0 0.00 0.00 0.00 57 1010.8
20260503173047 56 203 6.0 8.0 0.00 0.00 0.00 59 1010.6
20260503172545 56 152 5.0 6.0 0.00 0.00 0.00 60 1011.2
20260503172042 55 231 4.0 8.0 0.00 0.00 0.00 61 1010.9
20260503171538 55 69 9.0 15.0 0.00 0.00 0.00 60 1011.4
20260503171036 55 197 13.0 18.0 0.00 0.00 0.00 60 1011.2
20260503170532 55 155 5.0 7.0 0.00 0.00 0.00 61 1011.3
20260503150924 57 174 7.0 10.0 0.00 0.00 0.00 54 1012.6
20260503150421 57 206 11.0 13.0 0.00 0.00 0.00 54 1012.5
20260503131314 54 207 6.0 8.0 0.00 0.00 0.00 52 1013.2
20260503130812 53 227 4.0 6.0 0.00 0.00 0.00 53 1013.2
20260503130309 53 218 7.0 9.0 0.00 0.00 0.00 52 1013.0
20260503110703 50 232 5.0 8.0 0.00 0.00 0.00 52 1013.0
20260503110200 50 217 6.0 7.0 0.00 0.00 0.00 52 1013.2
20260503100126 50 220 10.0 14.0 0.00 0.00 0.00 50 1013.3
20260503081516 47 246 2.0 2.0 0.00 0.00 0.00 54 1014.2
20260503081013 48 238 3.0 3.0 0.00 0.00 0.00 54 1014.3
20260503080509 47 242 4.0 5.0 0.00 0.00 0.00 53 1014.1
20260503072443 47 255 5.0 6.0 0.00 0.00 0.00 55 1014.2
20260503071940 47 240 4.0 5.0 0.00 0.00 0.00 55 1014.3
20260503071437 46 249 4.0 6.0 0.00 0.00 0.00 55 1014.4
20260503070933 46 283 2.0 3.0 0.00 0.00 0.00 56 1014.3
20260503070430 46 227 2.0 3.0 0.00 0.00 0.00 57 1014.5
20260503054844 46 200 1.0 2.0 0.00 0.00 0.00 59 1015.0
20260503054339 46 238 2.0 2.0 0.00 0.00 0.00 58 1015.2
20260503053837 46 251 3.0 3.0 0.00 0.00 0.00 58 1015.1
20260503053336 46 214 1.0 2.0 0.00 0.00 0.00 58 1015.1
20260503052832 46 253 2.0 3.0 0.00 0.00 0.00 59 1015.3
20260503052329 46 233 3.0 3.0 0.00 0.00 0.00 59 1015.4
20260503051825 46 190 1.0 2.0 0.00 0.00 0.00 59 1015.3
20260503051321 45 228 2.0 2.0 0.00 0.00 0.00 60 1015.3
20260503050818 45 204 0.0 1.0 0.00 0.00 0.00 61 1015.2
20260503050314 45 194 2.0 2.0 0.00 0.00 0.00 61 1015.5
20260503045812 45 172 1.0 1.0 0.00 0.00 0.00 62 1015.4
20260503045310 45 238 2.0 2.0 0.00 0.00 0.00 62 1015.4
20260503044806 45 205 1.0 1.0 0.00 0.00 0.00 62 1015.5
20260503044303 45 208 1.0 1.0 0.00 0.00 0.00 61 1015.5
20260503043800 45 219 2.0 2.0 0.00 0.00 0.00 61 1015.5
20260503043257 45 205 1.0 1.0 0.00 0.00 0.00 62 1015.4
20260503042753 44 234 1.0 2.0 0.00 0.00 0.00 63 1015.4
20260503042250 45 213 1.0 1.0 0.00 0.00 0.00 62 1015.6
20260503041745 45 209 1.0 2.0 0.00 0.00 0.00 62 1015.3
20260503041244 45 215 1.0 1.0 0.00 0.00 0.00 62 1015.5
20260503040741 45 201 2.0 3.0 0.00 0.00 0.00 62 1015.6
20260503040238 45 229 1.0 1.0 0.00 0.00 0.00 62 1015.4
20260503035735 46 238 3.0 3.0 0.00 0.00 0.00 61 1015.7
20260503035233 45 232 2.0 2.0 0.00 0.00 0.00 61 1015.7
20260503034730 45 215 1.0 1.0 0.00 0.00 0.00 62 1015.9
20260503034226 45 215 1.0 2.0 0.00 0.00 0.00 62 1015.7
20260503033724 45 187 1.0 1.0 0.00 0.00 0.00 63 1016.0
20260503033221 45 224 1.0 1.0 0.00 0.00 0.00 64 1015.7
20260503032720 45 193 0.0 1.0 0.00 0.00 0.00 64 1015.7
20260503032218 45 209 1.0 1.0 0.00 0.00 0.00 64 1015.9
20260503031714 45 171 1.0 1.0 0.00 0.00 0.00 66 1016.1
20260503031213 44 199 0.0 1.0 0.00 0.00 0.00 67 1016.0
20260503030708 44 156 1.0 1.0 0.00 0.00 0.00 70 1016.2
20260503030205 43 234 1.0 1.0 0.00 0.00 0.00 74 1016.0
20260503025702 43 185 1.0 1.0 0.00 0.00 0.00 78 1016.1
20260503025200 43 189 0.0 0.0 0.00 0.00 0.00 80 1016.2
20260503024656 43 189 0.0 0.0 0.00 0.00 0.00 81 1016.2
20260503024154 43 191 0.0 1.0 0.00 0.00 0.00 81 1016.3
20260503023650 43 184 0.0 0.0 0.00 0.00 0.00 82 1016.1
20260503023147 43 185 0.0 0.0 0.00 0.00 0.00 82 1016.0
20260503022644 44 182 0.0 0.0 0.00 0.00 0.00 81 1016.3
20260503022143 44 185 1.0 1.0 0.00 0.00 0.00 81 1016.1
20260503021640 44 146 1.0 1.0 0.00 0.00 0.00 82 1016.2
20260503021136 44 177 1.0 1.0 0.00 0.00 0.00 81 1016.1
20260503020634 44 176 1.0 1.0 0.00 0.00 0.00 81 1016.2
20260503020131 44 182 2.0 3.0 0.00 0.00 0.00 80 1016.0
20260503015628 44 175 2.0 2.0 0.00 0.00 0.00 80 1016.2
20260503015125 44 176 1.0 1.0 0.00 0.00 0.00 80 1016.0
20260503014620 44 142 1.0 1.0 0.00 0.00 0.00 79 1016.0
20260503014119 44 179 2.0 2.0 0.00 0.00 0.00 78 1015.9
20260503013615 44 172 3.0 3.0 0.00 0.00 0.00 78 1016.2
20260503013114 44 115 2.0 3.0 0.00 0.00 0.00 77 1016.0
20260503012611 44 139 3.0 3.0 0.00 0.00 0.00 76 1016.0
20260503012107 44 144 2.0 2.0 0.00 0.00 0.00 76 1016.1
20260503011603 45 134 2.0 2.0 0.00 0.00 0.00 75 1015.9
20260503011101 45 156 4.0 5.0 0.00 0.00 0.00 75 1016.0
20260503010557 45 165 1.0 2.0 0.00 0.00 0.00 74 1016.1
20260503010055 45 148 4.0 5.0 0.00 0.00 0.00 73 1016.0
20260503005551 45 133 2.0 3.0 0.00 0.00 0.00 73 1016.0
20260503005049 45 126 3.0 5.0 0.00 0.00 0.00 72 1016.1